• In Czech Republic
  • List of Countries
  • For 7 days
  • Water Temperature
  • Satellite Maps
  • Weather Map
  • Weather Widgets
  • user-avatar
    Login

    Hourly Weather Konstantyna

    Today, 20 June, Wednesday

    Time Temperature Precipitation Wind Pressure Humidity
    00:00 +20°C° 0 mm 1 mps 712 mmHg 82%
    01:00 +19°C° 0 mm 1 mps 711 mmHg 82%
    02:00 +19°C° 0 mm 1 mps 711 mmHg 83%
    03:00 +19°C° 0 mm 1 mps 711 mmHg 83%
    04:00 +19°C° 0 mm 1 mps 711 mmHg 78%
    05:00 +20°C° 0 mm 1 mps 712 mmHg 72%
    06:00 +19°C° 0 mm 0 mps 712 mmHg 67%
    07:00 +23°C° 0 mm 1 mps 712 mmHg 59%
    08:00 +25°C° 0 mm 1 mps 713 mmHg 50%
    09:00 +26°C° 0 mm 1 mps 713 mmHg 42%
    10:00 +27°C° 0 mm 1 mps 713 mmHg 39%
    11:00 +28°C° 0 mm 1 mps 713 mmHg 36%
    12:00 +29°C° 0 mm 2 mps 713 mmHg 33%
    13:00 +29°C° 0 mm 2 mps 713 mmHg 34%
    14:00 +29°C° 0 mm 3 mps 712 mmHg 35%
    15:00 +29°C° 0 mm 3 mps 712 mmHg 35%
    16:00 +29°C° 0 mm 3 mps 712 mmHg 40%
    17:00 +28°C° 0 mm 3 mps 712 mmHg 44%
    18:00 +27°C° 0 mm 4 mps 712 mmHg 48%
    19:00 +26°C° 0 mm 3 mps 712 mmHg 53%
    20:00 +24°C° 0 mm 2 mps 712 mmHg 57%
    21:00 +23°C° 0 mm 2 mps 712 mmHg 62%
    22:00 +23°C° 0 mm 2 mps 712 mmHg 62%
    23:00 +23°C° 0 mm 1 mps 712 mmHg 61%

    Tomorrow, 21 June, Thursday

    Time Temperature Precipitation Wind Pressure Humidity
    00:00 +23°C° 0 mm 1 mps 712 mmHg 61%
    01:00 +23°C° 0 mm 1 mps 711 mmHg 63%
    02:00 +22°C° 0 mm 1 mps 711 mmHg 64%
    03:00 +20°C° 0 mm 0 mps 711 mmHg 66%
    04:00 +21°C° 0 mm 0 mps 711 mmHg 62%
    05:00 +23°C° 0 mm 1 mps 711 mmHg 59%
    06:00 +24°C° 0 mm 1 mps 711 mmHg 55%
    07:00 +26°C° 0 mm 1 mps 712 mmHg 50%
    08:00 +28°C° 0 mm 2 mps 712 mmHg 44%
    09:00 +29°C° 0 mm 2 mps 712 mmHg 38%
    10:00 +30°C° 0 mm 2 mps 712 mmHg 36%
    11:00 +30°C° 0 mm 3 mps 712 mmHg 34%
    12:00 +31°C° 0 mm 3 mps 712 mmHg 32%
    13:00 +31°C° 0.2 mm 3 mps 712 mmHg 35%
    14:00 +30°C° 0.2 mm 3 mps 711 mmHg 37%
    15:00 +29°C° 0.2 mm 2 mps 711 mmHg 39%
    16:00 +29°C° 0.2 mm 2 mps 711 mmHg 42%
    17:00 +28°C° 0.2 mm 2 mps 711 mmHg 45%
    18:00 +28°C° 0.2 mm 2 mps 710 mmHg 48%
    19:00 +27°C° 0 mm 2 mps 710 mmHg 52%
    20:00 +25°C° 0 mm 2 mps 711 mmHg 56%
    21:00 +24°C° 0 mm 1 mps 711 mmHg 60%
    22:00 +24°C° 0 mm 1 mps 711 mmHg 62%
    23:00 +23°C° 0 mm 1 mps 710 mmHg 63%

    Day after tomorrow, 22 June, Friday

    Time Temperature Precipitation Wind Pressure Humidity
    00:00 +21°C° 0 mm 0 mps 710 mmHg 64%
    01:00 +21°C° 0 mm 0 mps 710 mmHg 66%
    02:00 +20°C° 0 mm 0 mps 710 mmHg 67%
    03:00 +20°C° 0 mm 0 mps 710 mmHg 68%
    04:00 +21°C° 0 mm 0 mps 710 mmHg 65%
    05:00 +22°C° 0 mm 0 mps 710 mmHg 61%
    06:00 +22°C° 0 mm 0 mps 710 mmHg 57%
    07:00 +26°C° 0 mm 1 mps 711 mmHg 51%
    08:00 +28°C° 0 mm 1 mps 711 mmHg 45%
    09:00 +30°C° 0 mm 1 mps 711 mmHg 38%
    10:00 +31°C° 0 mm 2 mps 711 mmHg 36%
    11:00 +33°C° 0 mm 3 mps 711 mmHg 33%
    12:00 +33°C° 0 mm 4 mps 711 mmHg 31%
    13:00 +33°C° 0 mm 4 mps 711 mmHg 32%
    14:00 +33°C° 0 mm 4 mps 711 mmHg 34%
    15:00 +33°C° 0 mm 4 mps 711 mmHg 35%
    16:00 +32°C° 0 mm 4 mps 710 mmHg 39%
    17:00 +29°C° 0 mm 4 mps 710 mmHg 44%
    18:00 +28°C° 0 mm 4 mps 710 mmHg 48%
    19:00 +27°C° 0 mm 3 mps 710 mmHg 52%
    20:00 +25°C° 0 mm 2 mps 711 mmHg 55%
    21:00 +24°C° 0 mm 1 mps 711 mmHg 58%
    22:00 +23°C° 0 mm 1 mps 711 mmHg 59%
    23:00 +23°C° 0 mm 1 mps 711 mmHg 60%

    23 June, Saturday

    Time Temperature Precipitation Wind Pressure Humidity
    00:00 +22°C° 0 mm 1 mps 711 mmHg 61%
    01:00 +22°C° 0 mm 1 mps 710 mmHg 61%
    02:00 +22°C° 0 mm 1 mps 710 mmHg 60%
    03:00 +21°C° 0 mm 1 mps 710 mmHg 60%
    04:00 +22°C° 0 mm 1 mps 710 mmHg 56%
    05:00 +23°C° 0 mm 1 mps 710 mmHg 52%
    06:00 +24°C° 0 mm 1 mps 711 mmHg 48%
    07:00 +26°C° 0 mm 1 mps 711 mmHg 43%
    08:00 +28°C° 0 mm 1 mps 711 mmHg 38%
    09:00 +29°C° 0 mm 1 mps 712 mmHg 32%
    10:00 +31°C° 0 mm 2 mps 712 mmHg 30%
    11:00 +32°C° 0 mm 2 mps 712 mmHg 28%
    12:00 +34°C° 0 mm 2 mps 712 mmHg 26%
    13:00 +34°C° 0 mm 3 mps 712 mmHg 27%
    14:00 +34°C° 0 mm 3 mps 711 mmHg 28%
    15:00 +34°C° 0 mm 4 mps 711 mmHg 29%
    16:00 +33°C° 0.1 mm 4 mps 711 mmHg 33%
    17:00 +31°C° 0.1 mm 3 mps 711 mmHg 38%
    18:00 +29°C° 0.1 mm 3 mps 710 mmHg 42%
    19:00 +28°C° 0.4 mm 2 mps 711 mmHg 47%
    20:00 +26°C° 0.4 mm 2 mps 711 mmHg 52%
    21:00 +25°C° 0.4 mm 1 mps 711 mmHg 57%
    22:00 +25°C° 0 mm 1 mps 710 mmHg 58%
    23:00 +24°C° 0 mm 1 mps 710 mmHg 58%

    24 June, Sunday

    Time Temperature Precipitation Wind Pressure Humidity
    00:00 +24°C° 0 mm 1 mps 710 mmHg 59%
    01:00 +22°C° 0.1 mm 0 mps 709 mmHg 60%
    02:00 +22°C° 0.1 mm 0 mps 709 mmHg 61%
    03:00 +21°C° 0.1 mm 0 mps 709 mmHg 62%
    04:00 +22°C° 0.1 mm 0 mps 709 mmHg 60%
    05:00 +23°C° 0.1 mm 0 mps 709 mmHg 57%
    06:00 +24°C° 0.1 mm 0 mps 710 mmHg 54%
    07:00 +27°C° 0 mm 1 mps 710 mmHg 48%
    08:00 +29°C° 0 mm 1 mps 710 mmHg 43%
    09:00 +31°C° 0 mm 1 mps 710 mmHg 37%
    10:00 +32°C° 0 mm 2 mps 710 mmHg 34%
    11:00 +35°C° 0 mm 3 mps 710 mmHg 31%
    12:00 +36°C° 0 mm 4 mps 710 mmHg 27%
    13:00 +36°C° 0 mm 4 mps 710 mmHg 29%
    14:00 +36°C° 0 mm 4 mps 709 mmHg 30%
    15:00 +36°C° 0 mm 4 mps 709 mmHg 31%
    16:00 +34°C° 0.1 mm 4 mps 709 mmHg 35%
    17:00 +32°C° 0.1 mm 4 mps 709 mmHg 40%
    18:00 +29°C° 0.1 mm 4 mps 708 mmHg 45%
    19:00 +28°C° 0.3 mm 3 mps 709 mmHg 48%
    20:00 +26°C° 0.3 mm 2 mps 709 mmHg 52%
    21:00 +25°C° 0.3 mm 1 mps 709 mmHg 55%
    22:00 +25°C° 0 mm 1 mps 709 mmHg 56%
    23:00 +24°C° 0 mm 1 mps 708 mmHg 56%

    25 June, Monday

    Time Temperature Precipitation Wind Pressure Humidity
    00:00 +24°C° 0 mm 1 mps 708 mmHg 56%
    01:00 +23°C° 0 mm 1 mps 708 mmHg 57%
    02:00 +23°C° 0 mm 1 mps 708 mmHg 58%
    03:00 +22°C° 0 mm 1 mps 707 mmHg 60%
    04:00 +23°C° 0 mm 1 mps 708 mmHg 58%
    05:00 +23°C° 0 mm 1 mps 708 mmHg 57%
    06:00 +23°C° 0 mm 1 mps 708 mmHg 56%
    07:00 +25°C° 0 mm 2 mps 709 mmHg 50%
    08:00 +26°C° 0 mm 2 mps 709 mmHg 45%
    09:00 +28°C° 0 mm 3 mps 710 mmHg 40%
    10:00 +29°C° 0 mm 4 mps 710 mmHg 39%
    11:00 +30°C° 0 mm 4 mps 710 mmHg 37%
    12:00 +32°C° 0 mm 5 mps 710 mmHg 36%
    13:00 +30°C° 0 mm 5 mps 710 mmHg 36%
    14:00 +30°C° 0 mm 5 mps 710 mmHg 36%
    15:00 +30°C° 0 mm 5 mps 710 mmHg 36%
    16:00 +29°C° 0 mm 5 mps 710 mmHg 39%
    17:00 +27°C° 0 mm 5 mps 710 mmHg 43%
    18:00 +26°C° 0 mm 4 mps 710 mmHg 47%
    19:00 +25°C° 0 mm 3 mps 710 mmHg 53%
    20:00 +23°C° 0 mm 2 mps 711 mmHg 59%
    21:00 +22°C° 0 mm 1 mps 711 mmHg 65%
    22:00 +22°C° 0 mm 1 mps 711 mmHg 67%
    23:00 +21°C° 0 mm 1 mps 711 mmHg 70%
    Show more